Hourly Data Report for September 28, 2017

All times are specified in Local Standard Time (LST). Add 1 hour to adjust for Daylight Saving Time where and when it is observed.

GRAND MANAN SAR CS
NEW BRUNSWICK

44°42'43.400" N
66°48'06.900" W
78.20 m
8101925
71030
XGM

Download Data

Hourly Data (September 2017)
Hourly Data Report for September 28, 2017
Temp Definition
°C
Dew Point Temp Definition
°C
Rel Hum Definition
%
Wind Dir Definition
10's deg

Wind Spd Definition
km/h
Visibility Definition
km
Stn Press Definition
kPa
Hmdx Definition


Wind Chill Definition


Weather Definition


TIME
00:00 17.8 17.7 99 23 17   99.74     LegendNANA
01:00 18.1 17.9 99 23 19   99.70     LegendNANA
02:00 18.4 18.3 99 24 21   99.63     LegendNANA
03:00 17.7 17.6 99 25 19   99.60     LegendNANA
04:00 18.2 18.0 99 23 20   99.54     LegendNANA
05:00 17.7 17.6 99 24 23   99.50     LegendNANA
06:00 17.0 16.8 99 26 12   99.47     LegendNANA
07:00 17.1 17.0 99 27 12   99.47     LegendNANA
08:00 18.3 18.2 99 28 6   99.44     LegendNANA
09:00 17.9 17.7 99 31 13   99.46     LegendNANA
10:00 18.1 14.9 82 33 13   99.50     LegendNANA
11:00 16.7 11.7 72 36 9   99.60     LegendNANA
12:00 17.7 10.4 63 34 12   99.55     LegendNANA
13:00 19.2 10.8 58 32 15   99.54     LegendNANA
14:00 20.1 10.4 54 34 15   99.49     LegendNANA
15:00 20.4 9.4 49 35 12   99.49     LegendNANA
16:00 19.7 9.0 50 35 14   99.50     LegendNANA
17:00 18.3 7.7 50 36 18   99.53     LegendNANA
18:00 16.2 8.0 58 34 17   99.59     LegendNANA
19:00 14.6 8.0 65 35 16   99.71     LegendNANA
20:00 13.3 7.1 66 35 16   99.79     LegendNANA
21:00 12.4 7.1 70 33 13   99.84     LegendNANA
22:00 12.1 5.8 65 34 14   99.93     LegendNANA
23:00 11.3 4.5 63 35 20   99.96     LegendNANA

Notes on Data Quality.

Legend

  • E = Estimated
  • M = Missing
  • NA = Not Available
  • ‡ = Partner data that is not subject to review by the National Climate Archives
Date modified: